Location: Most
(50.5133°N, 13.6207°E)
Time: 14:00:55
(UTC+01:00)

UNHA 3 R/B - Pass Details

Date: 29 September 2020
Orbit: 479 x 556 km, 97.4° (Epoch: 27 October)

Event Time Altitude Azimuth Distance (km) Brightness Sun altitude
Rises 05:15:04 0° 15° (NNE) 2,652 9.3 -17.7°
Reaches altitude 10° 05:17:10 10° 18° (NNE) 1,772 8.4 -17.4°
Maximum altitude 05:20:59 67° 102° (ESE) 580 5.6 -16.9°
Drops below altitude 10° 05:24:52 10° 185° (S) 1,799 7.7 -16.3°
Enters shadow 05:26:02 - 187° (S) 2,286 8.2 -16.1°
